Weather History for Greenville, MS

Change the Weather History Date:

Sunday, January 1, 2012

  Actual Average Record
Temperature  
Mean Temperature 54 °F 43 °F  
Max Temperature 67 °F 52 °F 80 °F (1952)
Min Temperature 41 °F 34 °F 12 °F (1984)
Degree Days  
Heating Degree Days 11 22  
Month to date heating degree days 11 22  
Since 1 July heating degree days 1039 1106  
Cooling Degree Days 0 0  
Month to date cooling degree days 0 0  
Year to date cooling degree days 0 0  
Growing Degree Days 4 (Base 50)    
Moisture  
Dew Point 43 °F    
Average Humidity 67    
Maximum Humidity 93    
Minimum Humidity 40    
Precipitation  
Precipitation 0.00 in 0.13 in 5.55 in (1945)
Month to date precipitation 0.00 0.13  
Year to date precipitation 0.00 0.13  
Sea Level Pressure  
Sea Level Pressure 30.27 in    
Wind  
Wind Speed 14 mph (WNW)    
Max Wind Speed 23 mph    
Max Gust Speed 28 mph    
Visibility 9 miles    
Events      
T = Trace of Precipitation, MM = Missing Value Source: NWS Daily Summary

Daily Weather History Graph

Daily Weather History Graph

Search for Another Location

Airport:

Trip Planner

Search our weather history database for the weather conditions in past years. The results will help you decide how hot, cold, wet, or windy it might be!

Date:

Astronomy

Jan. 01, 2012 Rise Set
Actual Time 7:08 AM CST 5:06 PM CST
Civil Twilight 6:40 AM CST 5:34 PM CST
Nautical Twilight 6:09 AM CST 6:05 PM CST
Astronomical Twilight 5:39 AM CST 6:35 PM CST
Moon 11:45 AM CST (1/1) 12:15 AM CST (1/1)
Length of Visible Light 10h 53m
Length of Day
9h 58m
First Quarter, 55% of the Moon is Illuminated
Jan 1
First Quarter
Jan 9
Full
Jan 16
Last Quarter
Jan 23
New
Jan 30
First Quarter

Hourly Weather History & Observations

Time (CST) Temp. Windchill Dew Point Humidity Pressure Visibility Wind Dir Wind Speed Gust Speed Precip Events Conditions
12:53 AM 66.0 °F - 62.1 °F 87% 30.00 in 8.0 mi SW 18.4 mph - N/A   Mostly Cloudy
1:39 AM 64.4 °F - 62.6 °F 94% 29.99 in 7.0 mi SW 17.3 mph - N/A   Mostly Cloudy
1:53 AM 64.9 °F - 62.1 °F 90% 30.02 in 7.0 mi SW 16.1 mph - N/A   Mostly Cloudy
2:26 AM 64.4 °F - 62.6 °F 94% 30.01 in 6.0 mi SW 15.0 mph - N/A   Mostly Cloudy
2:53 AM 64.9 °F - 63.0 °F 93% 30.03 in 7.0 mi SW 13.8 mph - N/A   Overcast
3:53 AM 64.9 °F - 61.0 °F 87% 30.05 in 9.0 mi West 11.5 mph - N/A   Overcast
4:07 AM 64.4 °F - 60.8 °F 88% 30.04 in 9.0 mi West 11.5 mph - N/A   Mostly Cloudy
4:53 AM 63.0 °F - 54.0 °F 72% 30.11 in 10.0 mi WNW 17.3 mph 26.5 mph N/A   Mostly Cloudy
5:53 AM 57.9 °F - 46.0 °F 65% 30.16 in 10.0 mi WNW 15.0 mph - N/A   Clear
6:53 AM 53.1 °F - 37.0 °F 55% 30.23 in 10.0 mi NW 18.4 mph 25.3 mph N/A   Clear
7:53 AM 52.0 °F - 37.0 °F 57% 30.29 in 10.0 mi NW 16.1 mph - N/A   Clear
8:53 AM 54.0 °F - 39.0 °F 57% 30.33 in 10.0 mi NW 12.7 mph - N/A   Clear
9:53 AM 55.0 °F - 37.9 °F 53% 30.37 in 10.0 mi NNW 19.6 mph - N/A   Clear
10:53 AM 57.0 °F - 39.0 °F 51% 30.36 in 10.0 mi NW 15.0 mph 23.0 mph N/A   Clear
11:53 AM 57.9 °F - 36.0 °F 44% 30.35 in 10.0 mi NNW 15.0 mph - N/A   Clear
12:53 PM 59.0 °F - 36.0 °F 42% 30.33 in 10.0 mi NW 18.4 mph 21.9 mph N/A   Clear
1:53 PM 59.0 °F - 37.0 °F 44% 30.34 in 10.0 mi WNW 18.4 mph - N/A   Clear
2:53 PM 57.9 °F - 35.1 °F 42% 30.36 in 10.0 mi NW 17.3 mph - N/A   Clear
3:53 PM 57.2 °F - 33.8 °F 41% 30.37 in 10.0 mi NNW 13.8 mph - N/A   Clear
4:53 PM 53.1 °F - 32.0 °F 45% 30.40 in 10.0 mi NNW 12.7 mph - N/A   Clear
5:53 PM 46.9 °F - 33.1 °F 59% 30.42 in 10.0 mi NW 8.1 mph - N/A   Clear
6:53 PM 43.0 °F 39.5 °F 33.1 °F 68% 30.45 in 10.0 mi West 5.8 mph - N/A   Clear
7:53 PM 43.0 °F 39.5 °F 33.1 °F 68% 30.45 in 10.0 mi NNW 5.8 mph - N/A   Clear
8:53 PM 42.8 °F 39.3 °F 33.8 °F 70% 30.44 in 10.0 mi NW 5.8 mph - N/A   Clear
9:53 PM 43.0 °F 37.7 °F 30.0 °F 60% 30.47 in 10.0 mi NNW 9.2 mph - N/A   Clear
10:53 PM 45.0 °F 39.7 °F 26.1 °F 48% 30.48 in 10.0 mi NNW 10.4 mph - N/A   Clear
11:53 PM 42.1 °F 36.6 °F 26.1 °F 53% 30.48 in 10.0 mi NNW 9.2 mph - N/A   Clear